Regional Weather Roundup
Issued by NWS

Home | Current Version | Previous Version | Graphics & Text | Print | Product List | Glossary On
Versions: 1 2 3 4 5 6 7 8 9 10 11 12 13 14 15 16 17 18 19 20 21 22 23 24 25 26 27 28 29 30 31 32 33 34 35 36 37 38 39 40 41 42 43 44 45 46 47 48 49 50
000
ASUS44 KMEG 180510
RWRTN
TENNESSEE HOURLY STATE WEATHER ROUNDUP
NATIONAL WEATHER SERVICE MEMPHIS TN
1200 AM CDT THU SEP 18 2014

TNZ002-004-019-021-049-052-054-088>092-180600-
WEST TENNESSEE

CITY           SKY/WX    TMP DP  RH WIND       PRES   REMARKS
MEMPHIS INTL   CLOUDY    69  63  81 E7        29.95F
NWS MEMPHIS      N/A     65 N/A N/A MISG        N/A
JACKSON        CLOUDY    64  61  90 CALM      29.97F
DYERSBURG      PTCLDY    63  52  67 CALM      29.98S
UNION CITY     MOCLDY    59  57  94 CALM      29.96S
PARIS          PTCLDY    55  54  94 CALM      29.98F
HUNTINGDON     CLOUDY    59  58  96 CALM      29.97F
LEXINGTON      MOCLDY    61  59  94 CALM      29.97F
SAVANNAH       CLOUDY    61  61 100 CALM      29.97F
$$

TNZ008-025-027-028-033-062-065-066-180600-
NORTH MIDDLE TENNESSEE

CITY           SKY/WX    TMP DP  RH WIND       PRES   REMARKS
NASHVILLE      CLOUDY    65  59  81 NE3       30.00R
DICKSON        CLEAR     59  57  94 CALM      29.99S
PORTLAND       CLOUDY    57  57 100 S3        29.99S
CLARKSVILLE    CLOUDY    61  57  87 CALM      29.99S
LEBANON        CLOUDY    63  59  87 CALM      29.99R
SMYRNA         CLOUDY    64  60  87 CALM      30.01R
MURFREESBORO   CLOUDY    63  57  80 CALM      29.99S
COOKEVILLE     MOCLDY    59  59 100 CALM      30.00R
LIVINGSTON     CLOUDY    58  55  89 CALM      30.00S
GALLATIN       CLOUDY    60  59  97 CALM      30.00S
CROSSVILLE     CLOUDY    60  55  83 CALM      30.02R
$$

TNZ061-075-076-078-094-096-097-180600-
SOUTH MIDDLE TENNESSEE

CITY           SKY/WX    TMP DP  RH WIND       PRES   REMARKS
LEWISBURG      MOCLDY    59  58  96 CALM      29.99S
FAYETTEVILLE   MOCLDY    63  57  82 NE3       29.99S
TULLAHOMA      MOCLDY    61  57  88 CALM      30.00F
WINCHESTER     PTCLDY    61  59  94 CALM      30.00S
MCMINNVILLE    CLOUDY    63  63 100 CALM      30.01R
COLUMBIA       PTCLDY    61  61 100 CALM      29.98S
SHELBYVILLE    PTCLDY    61  59  94 CALM      30.00S
$$

TNZ017-018-042-046-047-180600-
NORTHEAST TENNESSEE

CITY           SKY/WX    TMP DP  RH WIND       PRES   REMARKS
TRI CITIES     CLEAR     54  52  93 CALM      29.98F FOG
ELIZABETHTON   CLEAR     54  52  94 NE3       29.99F
$$

TNZ012-013-036-069-073-074-180600-
CENTRAL EAST TENNESSEE

CITY           SKY/WX    TMP DP  RH WIND       PRES   REMARKS
KNOXVILLE      PTCLDY    62  59  90 W5        29.95S
OAK RIDGE      PTCLDY    62  56  80 CALM      29.99R
GATLINBURG     CLEAR     57  55  94 CALM      29.95F
MORRISTOWN     CLEAR     57  55  94 NE3       29.97S
$$

TNZ083-085-099-180600-
SOUTHEAST TENNESSEE

CITY           SKY/WX    TMP DP  RH WIND       PRES   REMARKS
CHATTANOOGA    CLOUDY    68  56  65 CALM      29.97S
$$

SKY/WX REPORTED AS FAIR MEANS FEW OR NO CLOUDS BELOW
12 THOUSAND FEET.



USA.gov is the U.S. government's official web portal to all federal, state and local government web resources and services.